KLM3CM EGLL-LFMN

Flight info

Callsign KLM3CM
Flight time N/A
Altitude 31000
Route MODMI M185 MID L612 BOGNA UL612 VEULE DCT KOTAP DCT KETEX DCT KOTIS DCT KUKOR DCT UTUVA DCT LERGA DCT LIQID DCT LATAM DCT TUNUR DCT NISAR
Aircraft A20N/M-SDE2E3FGHIRWXY/LB1

Departure

Time 2026-05-01 14:11
Airport London Heathrow Airport (EGLL)

Arrival

Time N/A
Airport Nice-Côte d'Azur Airport (LFMN)
Time Latitude Longitude Altitude Speed Heading
2026-05-01 13:53 51.46139 -0.44443 89 ft 0 kts 297°
2026-05-01 14:02 51.46132 -0.44420 90 ft 5 kts 295°
2026-05-01 14:02 51.46117 -0.44372 94 ft 5 kts 297°
2026-05-01 14:02 51.46106 -0.44349 92 ft 2 kts 342°
2026-05-01 14:02 51.46093 -0.44349 92 ft 2 kts 17°
2026-05-01 14:03 51.46083 -0.44355 93 ft 2 kts 23°
2026-05-01 14:03 51.46078 -0.44358 93 ft 0 kts 25°
2026-05-01 14:03 51.46079 -0.44358 93 ft 0 kts 25°
2026-05-01 14:04 51.46081 -0.44356 93 ft 1 kts 25°
2026-05-01 14:04 51.46093 -0.44348 92 ft 4 kts 25°
2026-05-01 14:05 51.46133 -0.44319 92 ft 8 kts 20°
2026-05-01 14:05 51.46203 -0.44282 92 ft 13 kts 24°
2026-05-01 14:05 51.46298 -0.44226 90 ft 16 kts 353°
2026-05-01 14:05 51.46323 -0.44389 89 ft 17 kts 267°
2026-05-01 14:06 51.46317 -0.44588 92 ft 20 kts 270°
2026-05-01 14:06 51.46315 -0.44822 93 ft 22 kts 269°
2026-05-01 14:06 51.46315 -0.45078 93 ft 24 kts 270°
2026-05-01 14:06 51.46314 -0.45354 89 ft 25 kts 270°
2026-05-01 14:07 51.46317 -0.45636 95 ft 26 kts 275°
2026-05-01 14:07 51.46321 -0.45935 91 ft 27 kts 269°
2026-05-01 14:07 51.46319 -0.46248 92 ft 29 kts 270°
2026-05-01 14:08 51.46321 -0.46919 90 ft 29 kts 269°
2026-05-01 14:08 51.46319 -0.47174 92 ft 22 kts 270°
2026-05-01 14:08 51.46320 -0.47322 93 ft 0 kts 277°
2026-05-01 14:09 51.46321 -0.47329 90 ft 3 kts 279°
2026-05-01 14:09 51.46337 -0.47406 92 ft 9 kts 292°
2026-05-01 14:10 51.46385 -0.47493 93 ft 14 kts 342°
2026-05-01 14:10 51.46482 -0.47432 92 ft 17 kts 64°
2026-05-01 14:10 51.46483 -0.47205 93 ft 34 kts 90°
2026-05-01 14:10 51.46487 -0.46391 95 ft 114 kts 90°
2026-05-01 14:11 51.46496 -0.44664 99 ft 191 kts 93°
2026-05-01 14:11 51.45939 -0.40396 1997 ft 188 kts 126°
2026-05-01 14:11 51.45166 -0.38675 2974 ft 194 kts 144°
2026-05-01 14:12 51.43927 -0.37649 3655 ft 214 kts 164°
2026-05-01 14:12 51.42372 -0.36911 3933 ft 253 kts 167°
2026-05-01 14:12 51.40557 -0.36156 4149 ft 289 kts 169°
2026-05-01 14:12 51.38530 -0.36213 4951 ft 297 kts 197°
2026-05-01 14:13 51.36624 -0.37329 6305 ft 285 kts 196°
2026-05-01 14:13 51.35355 -0.37721 7175 ft 277 kts 186°
2026-05-01 14:13 51.32852 -0.37869 8931 ft 264 kts 181°
2026-05-01 14:13 51.31018 -0.37984 9999 ft 265 kts 180°
2026-05-01 14:14 51.29150 -0.37556 10599 ft 282 kts 167°
2026-05-01 14:14 51.27199 -0.36566 10936 ft 306 kts 161°
2026-05-01 14:14 51.25179 -0.35261 11264 ft 329 kts 159°
2026-05-01 14:14 51.23013 -0.33776 11596 ft 350 kts 158°
2026-05-01 14:15 51.20713 -0.32221 12019 ft 366 kts 159°
2026-05-01 14:15 51.18337 -0.30677 12712 ft 372 kts 159°
2026-05-01 14:15 51.15909 -0.29157 13469 ft 377 kts 160°
2026-05-01 14:15 51.13446 -0.27659 14183 ft 381 kts 160°
2026-05-01 14:16 51.10952 -0.26169 14821 ft 384 kts 160°
2026-05-01 14:16 51.08436 -0.24680 15443 ft 388 kts 160°
2026-05-01 14:16 51.05896 -0.23182 16102 ft 391 kts 161°
2026-05-01 14:16 51.03364 -0.21691 16711 ft 395 kts 161°
2026-05-01 14:17 51.00783 -0.20170 17312 ft 398 kts 161°
2026-05-01 14:17 50.98169 -0.18629 17946 ft 402 kts 160°
2026-05-01 14:17 50.95540 -0.17078 18580 ft 405 kts 160°
2026-05-01 14:17 50.92884 -0.15513 19078 ft 408 kts 160°
2026-05-01 14:18 50.90210 -0.13938 19604 ft 411 kts 160°
2026-05-01 14:18 50.87524 -0.12358 20142 ft 414 kts 160°
2026-05-01 14:18 50.84814 -0.10766 20690 ft 417 kts 160°
2026-05-01 14:18 50.83008 -0.09706 21041 ft 418 kts 160°
2026-05-01 14:19 50.79340 -0.07557 21724 ft 422 kts 160°
2026-05-01 14:19 50.76618 -0.05964 22205 ft 425 kts 160°
2026-05-01 14:19 50.73836 -0.04339 22701 ft 427 kts 160°
2026-05-01 14:19 50.71037 -0.02705 23176 ft 430 kts 160°
2026-05-01 14:20 50.68223 -0.01065 23644 ft 433 kts 160°
2026-05-01 14:20 50.62532 0.02246 24461 ft 439 kts 160°
2026-05-01 14:20 50.59658 0.03915 24856 ft 441 kts 160°
2026-05-01 14:21 50.56772 0.05588 25237 ft 444 kts 160°
2026-05-01 14:21 50.53867 0.07270 25687 ft 444 kts 160°
2026-05-01 14:21 50.51008 0.08924 26250 ft 442 kts 160°
2026-05-01 14:22 50.45260 0.12242 27322 ft 439 kts 160°
2026-05-01 14:22 50.42395 0.13893 27826 ft 438 kts 160°
2026-05-01 14:22 50.39548 0.15531 28328 ft 437 kts 160°
2026-05-01 14:22 50.36694 0.17170 28853 ft 435 kts 160°
2026-05-01 14:23 50.33856 0.18799 29350 ft 434 kts 160°
2026-05-01 14:23 50.31026 0.20421 29850 ft 432 kts 160°
2026-05-01 14:23 50.28206 0.22035 30326 ft 431 kts 160°
2026-05-01 14:23 50.25425 0.23625 30695 ft 431 kts 160°
2026-05-01 14:24 50.22611 0.25232 31049 ft 431 kts 160°
2026-05-01 14:24 50.19850 0.27051 31196 ft 434 kts 153°
2026-05-01 14:24 50.14660 0.31926 31205 ft 436 kts 147°
2026-05-01 14:25 50.09675 0.37293 31211 ft 436 kts 146°
2026-05-01 14:25 50.04671 0.42615 31210 ft 435 kts 147°
2026-05-01 14:26 49.97137 0.50366 31214 ft 434 kts 147°
2026-05-01 14:27 49.92079 0.55501 31211 ft 434 kts 147°
2026-05-01 14:27 49.87026 0.60619 31212 ft 433 kts 147°
2026-05-01 14:28 49.79644 0.68567 31204 ft 433 kts 144°
2026-05-01 14:28 49.74761 0.74029 31201 ft 433 kts 144°
2026-05-01 14:29 49.69874 0.79462 31204 ft 433 kts 144°
2026-05-01 14:30 49.60072 0.90244 31197 ft 433 kts 144°
2026-05-01 14:31 49.52747 0.98257 31194 ft 432 kts 145°
2026-05-01 14:31 49.47846 1.03603 31187 ft 432 kts 145°
2026-05-01 14:32 49.42940 1.08943 31184 ft 432 kts 145°
2026-05-01 14:32 49.38031 1.14271 31186 ft 432 kts 145°
2026-05-01 14:33 49.33158 1.19548 31183 ft 431 kts 145°
2026-05-01 14:33 49.28251 1.24847 31186 ft 432 kts 145°
2026-05-01 14:34 49.23343 1.30135 31191 ft 432 kts 145°
2026-05-01 14:34 49.18433 1.35412 31192 ft 431 kts 145°
2026-05-01 14:35 49.13549 1.40648 31191 ft 431 kts 145°
2026-05-01 14:35 49.08638 1.45900 31186 ft 431 kts 145°
2026-05-01 14:36 49.03726 1.51140 31194 ft 431 kts 145°
2026-05-01 14:36 48.98812 1.56370 31196 ft 431 kts 145°
2026-05-01 14:37 48.93887 1.61599 31199 ft 432 kts 145°
2026-05-01 14:37 48.88995 1.66780 31203 ft 432 kts 145°
2026-05-01 14:38 48.84056 1.71997 31207 ft 432 kts 145°
2026-05-01 14:38 48.79114 1.77205 31210 ft 433 kts 145°
2026-05-01 14:39 48.74167 1.82405 31208 ft 433 kts 146°
2026-05-01 14:39 48.69248 1.87564 31212 ft 433 kts 146°
2026-05-01 14:40 48.64291 1.92750 31211 ft 433 kts 146°
2026-05-01 14:40 48.59332 1.97925 31207 ft 433 kts 146°
2026-05-01 14:41 48.54194 2.02673 31205 ft 433 kts 154°
2026-05-01 14:41 48.48667 2.06168 31209 ft 434 kts 159°
2026-05-01 14:42 48.42989 2.09316 31205 ft 435 kts 160°
2026-05-01 14:42 48.37290 2.12411 31205 ft 436 kts 160°
2026-05-01 14:43 48.31590 2.15538 31199 ft 436 kts 159°
2026-05-01 14:43 48.25889 2.18688 31197 ft 437 kts 160°
2026-05-01 14:44 48.20179 2.21844 31202 ft 437 kts 160°
2026-05-01 14:44 48.11644 2.26546 31209 ft 438 kts 160°
2026-05-01 14:45 48.03056 2.31258 31211 ft 439 kts 160°
2026-05-01 14:46 47.97321 2.34394 31212 ft 439 kts 160°
2026-05-01 14:46 47.88744 2.39072 31210 ft 440 kts 160°
2026-05-01 14:47 47.82985 2.42204 31210 ft 441 kts 160°
2026-05-01 14:48 47.74298 2.46913 31205 ft 445 kts 161°
2026-05-01 14:48 47.65541 2.51644 31202 ft 448 kts 161°
2026-05-01 14:49 47.53815 2.57952 31209 ft 451 kts 161°
2026-05-01 14:50 47.41985 2.64286 31205 ft 453 kts 162°
2026-05-01 14:51 47.33068 2.69040 31205 ft 455 kts 162°
2026-05-01 14:52 47.24097 2.73806 31207 ft 459 kts 163°
2026-05-01 14:53 47.15088 2.78576 31206 ft 462 kts 163°
2026-05-01 14:53 47.09023 2.81776 31210 ft 463 kts 163°
2026-05-01 14:54 47.02951 2.84973 31213 ft 464 kts 164°
2026-05-01 14:54 46.96867 2.88168 31211 ft 465 kts 164°
2026-05-01 14:55 46.90813 2.91340 31207 ft 466 kts 164°
2026-05-01 14:55 46.84710 2.94529 31208 ft 466 kts 164°
2026-05-01 14:56 46.78595 2.97718 31206 ft 467 kts 164°
2026-05-01 14:56 46.72514 3.00882 31205 ft 467 kts 164°
2026-05-01 14:57 46.66387 3.04061 31207 ft 468 kts 164°
2026-05-01 14:57 46.57190 3.08819 31207 ft 468 kts 164°
2026-05-01 14:58 46.51061 3.11980 31208 ft 468 kts 164°
2026-05-01 14:58 46.44915 3.15143 31202 ft 468 kts 164°
2026-05-01 14:59 46.38823 3.18269 31196 ft 468 kts 164°
2026-05-01 14:59 46.32684 3.21413 31194 ft 468 kts 164°
2026-05-01 15:00 46.23475 3.26115 31191 ft 468 kts 164°
2026-05-01 15:01 46.17373 3.29221 31183 ft 468 kts 164°
2026-05-01 15:01 46.11234 3.32339 31185 ft 468 kts 163°
2026-05-01 15:02 46.05092 3.35451 31184 ft 468 kts 163°
2026-05-01 15:02 45.98953 3.38554 31193 ft 468 kts 163°
2026-05-01 15:03 45.92856 3.41629 31208 ft 467 kts 163°
2026-05-01 15:03 45.86715 3.44718 31209 ft 467 kts 163°
2026-05-01 15:04 45.80573 3.47801 31209 ft 468 kts 163°
2026-05-01 15:04 45.74431 3.50877 31210 ft 467 kts 163°
2026-05-01 15:05 45.68330 3.53924 31211 ft 468 kts 163°
2026-05-01 15:05 45.62191 3.56983 31216 ft 467 kts 163°
2026-05-01 15:06 45.56055 3.60034 31213 ft 467 kts 163°
2026-05-01 15:06 45.49911 3.63082 31216 ft 467 kts 163°
2026-05-01 15:07 45.43768 3.66124 31215 ft 468 kts 163°
2026-05-01 15:07 45.37660 3.69140 31228 ft 468 kts 163°
2026-05-01 15:08 45.31509 3.72171 31241 ft 468 kts 163°
2026-05-01 15:08 45.25434 3.75464 31246 ft 471 kts 152°
2026-05-01 15:08 45.22843 3.78325 31265 ft 475 kts 135°
2026-05-01 15:09 45.20860 3.82077 31259 ft 479 kts 122°
2026-05-01 15:09 45.17824 3.90512 31255 ft 482 kts 118°
2026-05-01 15:10 45.14717 3.98838 31258 ft 481 kts 121°
2026-05-01 15:10 45.09435 4.10894 31248 ft 480 kts 124°
2026-05-01 15:11 45.03925 4.22741 31253 ft 480 kts 127°
2026-05-01 15:12 44.99742 4.29972 31248 ft 478 kts 134°
2026-05-01 15:12 44.92891 4.40214 31252 ft 478 kts 135°
2026-05-01 15:14 44.81541 4.57401 31248 ft 479 kts 134°
2026-05-01 15:14 44.74772 4.67714 31253 ft 480 kts 134°
2026-05-01 15:15 44.65700 4.81468 31259 ft 480 kts 134°
2026-05-01 15:16 44.56853 4.95392 31252 ft 480 kts 132°
2026-05-01 15:18 44.46111 5.13350 31265 ft 481 kts 128°
2026-05-01 15:19 44.38048 5.28211 31270 ft 481 kts 128°
2026-05-01 15:19 44.31954 5.39351 31267 ft 481 kts 128°
2026-05-01 15:20 44.25843 5.50474 31276 ft 482 kts 128°
2026-05-01 15:21 44.21787 5.57833 31274 ft 482 kts 128°
2026-05-01 15:21 44.17700 5.65229 31269 ft 482 kts 128°
2026-05-01 15:22 44.11550 5.76322 31270 ft 483 kts 128°
2026-05-01 15:22 44.07401 5.83661 31217 ft 481 kts 132°
2026-05-01 15:23 44.05056 5.86920 30828 ft 472 kts 140°
2026-05-01 15:23 44.02478 5.89530 30603 ft 459 kts 150°
2026-05-01 15:23 43.99678 5.91508 30232 ft 448 kts 159°
2026-05-01 15:23 43.96716 5.92800 29482 ft 445 kts 169°
2026-05-01 15:24 43.93642 5.93482 28380 ft 452 kts 174°
2026-05-01 15:24 43.90498 5.93541 27239 ft 456 kts 189°
2026-05-01 15:24 43.87443 5.92329 26111 ft 460 kts 205°
2026-05-01 15:24 43.84736 5.89953 25010 ft 464 kts 221°
2026-05-01 15:25 43.82599 5.86608 23987 ft 467 kts 235°
2026-05-01 15:25 43.80752 5.82979 22966 ft 466 kts 228°
2026-05-01 15:25 43.78314 5.80087 22048 ft 460 kts 211°
2026-05-01 15:25 43.75428 5.78297 21217 ft 453 kts 195°
2026-05-01 15:26 43.72344 5.77724 20407 ft 445 kts 178°
2026-05-01 15:26 43.69323 5.78391 19617 ft 439 kts 162°
2026-05-01 15:26 43.66618 5.80225 18850 ft 432 kts 144°
2026-05-01 15:26 43.64468 5.83060 18079 ft 425 kts 127°
2026-05-01 15:27 43.63141 5.86570 17687 ft 412 kts 108°
2026-05-01 15:27 43.62557 5.90414 17278 ft 398 kts 99°
2026-05-01 15:27 43.62184 5.94098 16788 ft 389 kts 98°
2026-05-01 15:28 43.61462 6.01332 15791 ft 372 kts 101°
2026-05-01 15:28 43.60727 6.04704 15319 ft 364 kts 113°
2026-05-01 15:28 43.59519 6.07721 14837 ft 357 kts 124°
2026-05-01 15:29 43.57647 6.13850 13998 ft 344 kts 102°
2026-05-01 15:29 43.57118 6.17028 13557 ft 337 kts 104°
2026-05-01 15:29 43.55830 6.23103 12798 ft 323 kts 108°
2026-05-01 15:30 43.54632 6.27865 12219 ft 311 kts 109°
2026-05-01 15:31 43.51526 6.39319 10995 ft 280 kts 109°
2026-05-01 15:31 43.49984 6.44085 10507 ft 270 kts 128°
2026-05-01 15:32 43.47483 6.47726 10108 ft 257 kts 131°
2026-05-01 15:32 43.45057 6.51166 9706 ft 244 kts 130°
2026-05-01 15:33 43.41648 6.56044 9148 ft 228 kts 130°
2026-05-01 15:34 43.38898 6.60190 8605 ft 212 kts 112°